{"data":{"norad_id":58048,"epoch":"2026-05-24T09:09:10.221120Z","epoch_age_seconds":131690,"freshness":"FRESH","line1":"1 58048U 23156W   26144.38136830  .00000117  00000+0  16058-4 0  9993","line2":"2 58048  53.1594 176.4573 0001051  81.7845 278.3275 15.30194452146578","mean_motion":15.30194452,"eccentricity":0.0001051,"inclination_deg":53.1594,"raan_deg":176.4573,"arg_perigee_deg":81.7845,"mean_anomaly_deg":278.3275,"bstar":1.6058e-5,"rev_number":14657,"period_min":94.105686902595,"perigee_km":474.51134575382,"apogee_km":475.95192384086,"semimajor_km":6853.3686347973,"source":"CELESTRAK","updated_at":"2026-05-25T13:38:18.498391Z"}}